Hourly Data Report for July 03, 2021

VINELAND STATION RCS
ONTARIO
Current Station Operator: ECCC - MSC

43°11'00.000" N
79°24'00.000" W
79.20 m
6139148
71171
XVN

Download Data

Hourly Data (July 2021)
Hourly Data Report for July 3, 2021
TIME
LST
Temp Definition
°C
Dew Point Definition
°C
Rel Hum Definition
%
Precip. Amount Definition
mm

Wind Dir Definition
10's deg

Wind Spd Definition
km/h
Visibility Definition
km
Stn Press Definition
kPa
Hmdx Definition


Wind Chill Definition


Weather Definition


00:00 16.6 14.7 88 0.0 28 8   100.19     LegendNANA
01:00 16.0 14.2 89 0.0 27 5   100.17     LegendNANA
02:00 15.1 13.6 91 0.0 26 6   100.13     LegendNANA
03:00 14.8 13.6 93 0.0 27 6   100.15     LegendNANA
04:00 14.6 13.3 92 0.0 19 4   100.14     LegendNANA
05:00 14.3 12.7 90 0.0 27 7   100.17     LegendNANA
06:00 16.1 14.2 88 0.0 28 9   100.18     LegendNANA
07:00 17.0 13.0 78 0.0 30 9   100.22     LegendNANA
08:00 17.6 13.3 76 0.0 31 9   100.28     LegendNANA
09:00 18.1 13.8 76 0.0 30 5   100.24     LegendNANA
10:00 19.7 14.1 70 0.0 35 7   100.20     LegendNANA
11:00 20.1 14.7 71 0.0 2 5   100.16     LegendNANA
12:00 21.0 14.4 66 0.0 36 8   100.11 25   LegendNANA
13:00 22.4 15.5 65 0.0 1 7   100.06 27   LegendNANA
14:00 24.1 14.0 53 0.0 5 6   100.02 27   LegendNANA
15:00 24.3 14.3 54 0.0 7 4   99.97 28   LegendNANA
16:00 25.2 15.3 54 0.0 8 5   99.90 29   LegendNANA
17:00 24.2 14.3 54 0.0 7 4   99.88 28   LegendNANA
18:00 23.5 14.1 55 0.0 23 9   99.93 27   LegendNANA
19:00 22.9 15.0 61 0.0 19 9   99.97 27   LegendNANA
20:00 21.3 15.0 67 0.0 22 13   100.00 25   LegendNANA
21:00 19.7 15.2 75 0.0 21 11   100.05     LegendNANA
22:00 19.6 14.3 71 0.0 22 15   100.04     LegendNANA
23:00 19.2 13.4 69 0.0 22 13   100.04     LegendNANA

Notes on Data Quality.

Legend

  • E = Estimated
  • M = Missing
  • NA = Not Available*
  • [empty] = Indicates an unobserved value
Date modified: